Location: Newark
(39.9581°N, 97.2014°W)
Time: 20:36:48
(UTC+00:00)

Envisat - Pass Details

Date: 21 January 2020
Orbit: 764 x 766 km, 98.1° (Epoch: 25 February)

Event Time Altitude Azimuth Distance (km) Brightness Sun altitude
Rises 23:52:54 0° 152° (SSE) 3,219 6.2 -4.2°
Reaches altitude 10° 23:55:15 10° 147° (SSE) 2,297 5.4 -4.7°
Maximum altitude 00:00:09 52° 72° (ENE) 953 3.2 -5.5°
Drops below altitude 10° 00:05:04 10° 358° (N) 2,312 5.3 -6.4°
Sets 00:07:26 0° 353° (N) 3,242 6.1 -6.8°
